Flag for United Kingdom Weather past 2 weeks in Cheltenham, England, United Kingdom

Now
59 °F

Cool.


Feels Like: 56 °F
Forecast: 54 / 66 °F
Wind: 12 mph from Southeast

Location: Little Rissington

Current Time: Aug 3, 2015 at 4:22:52 AM

Latest Report: Aug 3, 2015 at 3:00 AM


Visibility: 13 mi

Pressure: 29.77 "Hg

Humidity: 71%

Dew point: 49 °F

Location of CheltenhamLocation

Historic Weather in Cheltenham — Graph

°F

Cheltenham temperature yesterday

Maximum temperature yesterday: 73 °F (at 4:00 PM)
Minimum temperature yesterday: 50 °F (at 5:00 AM)
Average temperature yesterday: 61 °F

Past Weeks' High & Low Weather Summary

 TemperatureHumidityPressure
High73 °F (Jul 20, 4:00 PM)100% (Jul 19, 6:00 AM)30.16 "Hg (Jul 19, 6:00 AM)
Low44 °F (Jul 31, 5:00 AM)35% (Jul 19, 4:00 PM)29.38 "Hg (Jul 26, 7:00 PM)
Average56 °F80%29.86 "Hg
* Reported Jul 19 3:00 AM — Aug 3 3:00 AM, Cheltenham, Weather by CustomWeather, © 2015

Note: Actual official high and low records may vary slightly from our data, if they occured in-between our weather recording intervals... More about our weather records

Advertising

Cheltenham weather history for previous 24 hours

 ConditionsComfort  
Time TempWeatherWind HumidityBarometerVisibility
3:00 AM
Mon, Aug 3
59 °FCool.12 mph71%29.77 "Hg13 mi
2:00 AM62 °FCool.13 mph62%29.78 "Hg14 mi
1:00 AM62 °FCool.10 mph60%29.81 "Hg14 mi
12:00 AM64 °FMild.12 mph56%29.82 "Hg16 mi
11:00 PM
Sun, Aug 2
65 °FMild.13 mph52%29.84 "Hg17 mi
9:00 PM66 °FMild.10 mph49%29.88 "Hg14 mi
8:00 PM68 °FMild.12 mph49%29.89 "Hg16 mi
7:00 PM71 °FMild.15 mph44%29.88 "Hg15 mi
6:00 PM72 °FMild.16 mph42%29.90 "Hg15 mi
5:00 PM72 °FMild.20 mph44%29.91 "Hg13 mi
4:00 PM73 °FMild.17 mph43%29.92 "Hg15 mi
3:00 PM71 °FMild.17 mph45%29.95 "Hg16 mi
2:00 PM69 °FMild.16 mph50%29.98 "Hg17 mi
12:00 PM65 °FMild.13 mph64%30.02 "Hg14 mi
11:00 AM63 °FMild.10 mph70%30.04 "Hg16 mi
10:00 AM60 °FCool.10 mph86%30.04 "Hg18 mi
9:00 AM55 °FCool.8 mph100%30.06 "Hg7 mi
8:00 AM53 °FCool.3 mph100%30.05 "Hg1 mi
7:00 AM51 °FCool.3 mph100%30.06 "Hg0 mi
6:00 AM51 °FCool.5 mph100%30.05 "Hg0 mi
5:00 AM50 °FCool.6 mph100%30.05 "Hg0 mi
4:00 AM51 °FCool.6 mph100%30.04 "Hg1 mi
Weather by CustomWeather, © 2015

See weather overviewHow to use our weather pages